| time (UTC) | temp F | wind direction | speed knots | gust knots | rain 1hr in | rain 24hr in | rain mn in | humidity % | barometer mb |
| 20260508151231 | 63 | 290 | 1.7 | 1.7 | 0.00 | 0.00 | 0.00 | 47 | 1018.7 |
| 20260508150728 | 62 | 6 | 3.5 | 3.5 | 0.00 | 0.00 | 0.00 | 43 | 1018.6 |
| 20260508150225 | 62 | 85 | 1.7 | 3.5 | 0.00 | 0.00 | 0.00 | 45 | 1018.6 |
| 20260508145720 | 62 | 76 | 0.0 | 3.5 | 0.00 | 0.00 | 0.00 | 45 | 1018.7 |
| 20260508145216 | 62 | 43 | 1.7 | 3.5 | 0.00 | 0.00 | 0.00 | 45 | 1018.9 |
| 20260508144714 | 61 | 27 | 0.9 | 1.7 | 0.00 | 0.00 | 0.00 | 49 | 1018.9 |
| 20260508144212 | 60 | 99 | 1.7 | 7.8 | 0.00 | 0.00 | 0.00 | 47 | 1019.0 |
| 20260508143709 | 60 | 17 | 1.7 | 2.6 | 0.00 | 0.00 | 0.00 | 49 | 1018.8 |
| 20260508143206 | 59 | 101 | 2.6 | 3.5 | 0.00 | 0.00 | 0.00 | 53 | 1018.9 |
| 20260508142702 | 58 | 44 | 1.7 | 3.5 | 0.00 | 0.00 | 0.00 | 56 | 1018.8 |
| 20260508142159 | 58 | 140 | 0.0 | 1.7 | 0.00 | 0.00 | 0.00 | 57 | 1018.8 |
| 20260508141655 | 57 | 108 | 1.7 | 3.5 | 0.00 | 0.00 | 0.00 | 61 | 1018.9 |
| 20260508141153 | 57 | 128 | 1.7 | 3.5 | 0.00 | 0.00 | 0.00 | 61 | 1019.1 |
| 20260508140651 | 57 | 140 | 1.7 | 2.6 | 0.00 | 0.00 | 0.00 | 66 | 1019.0 |
| 20260508140147 | 56 | 135 | 0.0 | 0.0 | 0.00 | 0.00 | 0.00 | 67 | 1019.1 |
| 20260508135643 | 55 | 174 | 1.7 | 2.6 | 0.00 | 0.00 | 0.00 | 65 | 1019.3 |
| 20260508135139 | 55 | 159 | 1.7 | 2.6 | 0.00 | 0.00 | 0.00 | 69 | 1019.1 |
| 20260508134636 | 54 | 122 | 1.7 | 2.6 | 0.00 | 0.00 | 0.00 | 67 | 1019.2 |
| 20260508134133 | 53 | 138 | 1.7 | 1.7 | 0.00 | 0.00 | 0.00 | 67 | 1019.1 |
| 20260508133629 | 53 | 173 | 0.9 | 1.7 | 0.00 | 0.00 | 0.00 | 71 | 1019.2 |
| 20260508133127 | 52 | 134 | 1.7 | 1.7 | 0.00 | 0.00 | 0.00 | 71 | 1019.1 |
| 20260508132625 | 53 | 13 | 1.7 | 2.6 | 0.00 | 0.00 | 0.00 | 70 | 1018.9 |
| 20260508132121 | 51 | 330 | 1.7 | 2.6 | 0.00 | 0.00 | 0.00 | 71 | 1019.0 |
| 20260508131617 | 51 | 137 | 0.0 | 2.6 | 0.00 | 0.00 | 0.00 | 73 | 1019.1 |
| 20260508131114 | 51 | 68 | 0.0 | 1.7 | 0.00 | 0.00 | 0.00 | 74 | 1019.2 |
| 20260508130611 | 49 | 357 | 0.0 | 0.9 | 0.00 | 0.00 | 0.00 | 78 | 1019.4 |
| 20260508130108 | 49 | 324 | 0.9 | 2.6 | 0.00 | 0.00 | 0.00 | 79 | 1019.3 |
| 20260508125607 | 49 | 32 | 1.7 | 2.6 | 0.00 | 0.00 | 0.00 | 82 | 1019.4 |
| 20260508125106 | 48 | 16 | 0.9 | 1.7 | 0.00 | 0.00 | 0.00 | 80 | 1019.7 |
| 20260508124604 | 48 | 348 | 0.0 | 2.6 | 0.00 | 0.00 | 0.00 | 78 | 1019.4 |
| 20260508124100 | 47 | 23 | 0.9 | 1.7 | 0.00 | 0.00 | 0.00 | 79 | 1019.3 |
| 20260508123559 | 47 | 34 | 0.9 | 2.6 | 0.00 | 0.00 | 0.00 | 80 | 1019.2 |
| 20260508123055 | 46 | 44 | 0.0 | 1.7 | 0.00 | 0.00 | 0.00 | 83 | 1019.4 |
| 20260508122552 | 46 | 56 | 0.0 | 1.7 | 0.00 | 0.00 | 0.00 | 83 | 1019.4 |
| 20260508122049 | 44 | 59 | 0.0 | 1.7 | 0.00 | 0.00 | 0.00 | 88 | 1019.3 |
| 20260508121548 | 43 | 88 | 0.0 | 0.9 | 0.00 | 0.00 | 0.00 | 91 | 1019.3 |
| 20260508121045 | 42 | 74 | 0.0 | 0.0 | 0.00 | 0.00 | 0.00 | 93 | 1019.3 |
| 20260508120542 | 41 | 91 | 0.9 | 0.9 | 0.00 | 0.00 | 0.00 | 93 | 1019.1 |
| 20260508120041 | 40 | 93 | 0.9 | 0.9 | 0.00 | 0.00 | 0.00 | 93 | 1019.0 |
| 20260508115537 | 40 | 87 | 0.0 | 1.7 | 0.00 | 0.00 | 0.00 | 94 | 1019.1 |
| 20260508115034 | 39 | 93 | 0.9 | 1.7 | 0.00 | 0.00 | 0.00 | 95 | 1019.2 |
| 20260508114531 | 39 | 92 | 1.7 | 1.7 | 0.00 | 0.00 | 0.00 | 94 | 1019.2 |
| 20260508114027 | 39 | 63 | 1.7 | 2.6 | 0.00 | 0.00 | 0.00 | 94 | 1019.2 |
| 20260508113525 | 38 | 76 | 0.9 | 1.7 | 0.00 | 0.00 | 0.00 | 95 | 1019.4 |
| 20260508113023 | 37 | 74 | 0.9 | 2.6 | 0.00 | 0.00 | 0.00 | 96 | 1019.1 |
| 20260508112519 | 37 | 89 | 1.7 | 2.6 | 0.00 | 0.00 | 0.00 | 96 | 1019.0 |
| 20260508112016 | 36 | 71 | 0.9 | 1.7 | 0.00 | 0.00 | 0.00 | 97 | 1019.2 |
| 20260508111513 | 36 | 83 | 1.7 | 1.7 | 0.00 | 0.00 | 0.00 | 97 | 1019.2 |
| 20260508111010 | 36 | 73 | 0.0 | 0.0 | 0.00 | 0.00 | 0.00 | 98 | 1019.1 |
| 20260508110508 | 35 | 72 | 0.0 | 0.0 | 0.00 | 0.00 | 0.00 | 98 | 1019.0 |
| 20260508110003 | 34 | 71 | 0.0 | 0.0 | 0.00 | 0.00 | 0.00 | 99 | 1018.9 |
| 20260508105458 | 34 | 74 | 0.0 | 1.7 | 0.00 | 0.00 | 0.00 | 98 | 1019.0 |
| 20260508104956 | 34 | 82 | 0.9 | 1.7 | 0.00 | 0.00 | 0.00 | 98 | 1018.7 |
| 20260508104453 | 34 | 84 | 1.7 | 1.7 | 0.00 | 0.00 | 0.00 | 98 | 1018.7 |
| 20260508103950 | 35 | 76 | 1.7 | 1.7 | 0.00 | 0.00 | 0.00 | 99 | 1018.7 |
| 20260508103447 | 35 | 93 | 1.7 | 1.7 | 0.00 | 0.00 | 0.00 | 99 | 1018.8 |
| 20260508102943 | 34 | 76 | 1.7 | 2.6 | 0.00 | 0.00 | 0.00 | 99 | 1018.6 |
| 20260508102442 | 35 | 88 | 0.9 | 1.7 | 0.00 | 0.00 | 0.00 | 99 | 1018.7 |
| 20260508101939 | 35 | 81 | 1.7 | 1.7 | 0.00 | 0.00 | 0.00 | 99 | 1018.8 |
| 20260508101436 | 35 | 80 | 1.7 | 1.7 | 0.00 | 0.00 | 0.00 | 99 | 1018.5 |
| 20260508100933 | 35 | 84 | 1.7 | 1.7 | 0.00 | 0.00 | 0.00 | 99 | 1018.5 |
| 20260508100432 | 35 | 89 | 1.7 | 1.7 | 0.00 | 0.00 | 0.00 | 98 | 1018.5 |
| 20260508095928 | 35 | 87 | 1.7 | 1.7 | 0.00 | 0.00 | 0.00 | 98 | 1018.6 |
| 20260508095426 | 35 | 84 | 1.7 | 2.6 | 0.00 | 0.00 | 0.00 | 99 | 1018.4 |
| 20260508094922 | 35 | 85 | 1.7 | 1.7 | 0.00 | 0.00 | 0.00 | 99 | 1018.6 |
| 20260508094419 | 35 | 90 | 1.7 | 2.6 | 0.00 | 0.00 | 0.00 | 99 | 1018.5 |
| 20260508093916 | 35 | 88 | 1.7 | 2.6 | 0.00 | 0.00 | 0.00 | 99 | 1018.4 |
| 20260508093414 | 34 | 84 | 1.7 | 2.6 | 0.00 | 0.00 | 0.00 | 99 | 1018.5 |
| 20260508092911 | 34 | 75 | 2.6 | 2.6 | 0.00 | 0.00 | 0.00 | 99 | 1018.5 |
| 20260508092409 | 34 | 78 | 0.9 | 1.7 | 0.00 | 0.00 | 0.00 | 99 | 1018.5 |
| 20260508091907 | 34 | 75 | 0.9 | 0.9 | 0.00 | 0.00 | 0.00 | 99 | 1018.4 |
| 20260508091403 | 34 | 88 | 0.0 | 0.0 | 0.00 | 0.00 | 0.00 | 99 | 1018.4 |
| 20260508090901 | 35 | 88 | 0.0 | 0.0 | 0.00 | 0.00 | 0.00 | 98 | 1018.2 |
| 20260508090359 | 35 | 88 | 0.0 | 0.0 | 0.00 | 0.00 | 0.00 | 99 | 1018.5 |
| 20260508085854 | 35 | 89 | 0.0 | 0.0 | 0.00 | 0.00 | 0.00 | 99 | 1018.5 |
| 20260508085351 | 35 | 88 | 0.9 | 0.9 | 0.00 | 0.00 | 0.00 | 98 | 1018.4 |
| 20260508084848 | 35 | 86 | 0.9 | 1.7 | 0.00 | 0.00 | 0.00 | 98 | 1018.4 |
| 20260508084345 | 35 | 76 | 0.0 | 0.0 | 0.00 | 0.00 | 0.00 | 98 | 1018.1 |
| 20260508083843 | 35 | 73 | 0.0 | 0.0 | 0.00 | 0.00 | 0.00 | 98 | 1018.0 |
| 20260508083340 | 35 | 82 | 0.0 | 0.0 | 0.00 | 0.00 | 0.00 | 98 | 1018.2 |
| 20260508082839 | 35 | 84 | 0.0 | 0.0 | 0.00 | 0.00 | 0.00 | 98 | 1018.1 |
| 20260508082337 | 35 | 78 | 0.9 | 0.9 | 0.00 | 0.00 | 0.00 | 98 | 1018.1 |
| 20260508081834 | 35 | 78 | 0.9 | 0.9 | 0.00 | 0.00 | 0.00 | 98 | 1018.2 |
| 20260508081331 | 35 | 81 | 0.0 | 0.9 | 0.00 | 0.00 | 0.00 | 98 | 1018.2 |
| 20260508080828 | 35 | 89 | 0.9 | 1.7 | 0.00 | 0.00 | 0.00 | 98 | 1018.4 |
| 20260508080326 | 35 | 81 | 0.9 | 1.7 | 0.00 | 0.00 | 0.00 | 98 | 1018.2 |
| 20260508075822 | 36 | 73 | 0.9 | 1.7 | 0.00 | 0.00 | 0.00 | 98 | 1018.1 |
| 20260508075319 | 36 | 88 | 1.7 | 1.7 | 0.00 | 0.00 | 0.00 | 98 | 1018.2 |
| 20260508074817 | 36 | 92 | 0.9 | 1.7 | 0.00 | 0.00 | 0.00 | 98 | 1018.1 |
| 20260508074314 | 36 | 89 | 0.9 | 0.9 | 0.00 | 0.00 | 0.00 | 98 | 1018.1 |
| 20260508073811 | 36 | 83 | 0.0 | 1.7 | 0.00 | 0.00 | 0.00 | 98 | 1018.0 |
| 20260508073309 | 36 | 87 | 0.9 | 1.7 | 0.00 | 0.00 | 0.00 | 98 | 1017.9 |
| 20260508072805 | 36 | 113 | 0.9 | 0.9 | 0.00 | 0.00 | 0.00 | 98 | 1018.1 |
| 20260508072306 | 36 | 86 | 0.9 | 0.9 | 0.00 | 0.00 | 0.00 | 98 | 1018.1 |
| 20260508071759 | 36 | 92 | 1.7 | 1.7 | 0.00 | 0.00 | 0.00 | 98 | 1018.0 |
| 20260508071258 | 36 | 84 | 1.7 | 1.7 | 0.00 | 0.00 | 0.00 | 98 | 1018.0 |
| 20260508070754 | 36 | 73 | 0.0 | 0.9 | 0.00 | 0.00 | 0.00 | 98 | 1017.9 |
| 20260508070253 | 37 | 75 | 0.9 | 1.7 | 0.00 | 0.00 | 0.00 | 98 | 1018.1 |
| 20260508065750 | 36 | 110 | 0.9 | 0.9 | 0.00 | 0.00 | 0.00 | 98 | 1017.9 |
| 20260508065248 | 36 | 88 | 0.9 | 0.9 | 0.00 | 0.00 | 0.00 | 98 | 1018.2 |
| 20260508064746 | 37 | 74 | 0.9 | 0.9 | 0.00 | 0.00 | 0.00 | 98 | 1018.1 |
| 20260508064244 | 37 | 84 | 0.9 | 1.7 | 0.00 | 0.00 | 0.00 | 98 | 1018.2 |
| 20260508063740 | 37 | 92 | 1.7 | 1.7 | 0.00 | 0.00 | 0.00 | 98 | 1018.3 |
| 20260508063239 | 37 | 78 | 0.0 | 1.7 | 0.00 | 0.00 | 0.00 | 98 | 1018.5 |
| 20260508062735 | 37 | 84 | 0.9 | 1.7 | 0.00 | 0.00 | 0.00 | 97 | 1018.1 |
| 20260508062233 | 37 | 100 | 0.9 | 1.7 | 0.00 | 0.00 | 0.00 | 97 | 1018.3 |
| 20260508061730 | 37 | 90 | 1.7 | 1.7 | 0.00 | 0.00 | 0.00 | 97 | 1018.1 |
| 20260508061227 | 37 | 80 | 0.0 | 0.0 | 0.00 | 0.00 | 0.00 | 97 | 1018.2 |
| 20260508060723 | 37 | 89 | 0.0 | 0.0 | 0.00 | 0.00 | 0.00 | 97 | 1018.4 |
| 20260508060221 | 37 | 113 | 0.0 | 0.0 | 0.00 | 0.00 | 0.00 | 97 | 1018.3 |
| 20260508055716 | 37 | 108 | 0.0 | 0.0 | 0.00 | 0.00 | 0.00 | 97 | 1018.5 |
| 20260508055213 | 37 | 96 | 0.0 | 0.0 | 0.00 | 0.00 | 0.00 | 97 | 1018.3 |
| 20260508054710 | 37 | 93 | 0.0 | 0.0 | 0.00 | 0.00 | 0.00 | 97 | 1018.2 |
| 20260508054208 | 38 | 95 | 0.0 | 0.0 | 0.00 | 0.00 | 0.00 | 97 | 1018.2 |
| 20260508053705 | 38 | 97 | 0.0 | 0.0 | 0.00 | 0.00 | 0.00 | 97 | 1018.2 |
| 20260508053202 | 38 | 97 | 0.0 | 0.0 | 0.00 | 0.00 | 0.00 | 97 | 1018.2 |
| 20260508052659 | 38 | 96 | 0.0 | 0.0 | 0.00 | 0.00 | 0.00 | 96 | 1018.1 |
| 20260508052156 | 38 | 96 | 0.0 | 0.0 | 0.00 | 0.00 | 0.00 | 96 | 1018.2 |
| 20260508051652 | 38 | 96 | 0.0 | 0.0 | 0.00 | 0.00 | 0.00 | 96 | 1018.1 |
| 20260508051148 | 38 | 96 | 0.0 | 0.0 | 0.00 | 0.00 | 0.00 | 96 | 1018.2 |
| 20260508050644 | 38 | 96 | 0.0 | 0.0 | 0.00 | 0.00 | 0.00 | 96 | 1018.2 |
| 20260508050142 | 38 | 96 | 0.0 | 0.0 | 0.00 | 0.00 | 0.00 | 96 | 1018.2 |
| 20260508045637 | 38 | 96 | 0.0 | 0.0 | 0.00 | 0.00 | 0.00 | 96 | 1018.0 |
| 20260508045136 | 39 | 117 | 0.0 | 0.0 | 0.00 | 0.00 | 0.00 | 95 | 1018.2 |
| 20260508044632 | 39 | 118 | 0.0 | 0.0 | 0.00 | 0.00 | 0.00 | 95 | 1018.3 |
| 20260508044128 | 39 | 119 | 0.0 | 0.0 | 0.00 | 0.00 | 0.00 | 94 | 1018.2 |
| 20260508043625 | 39 | 122 | 0.0 | 0.0 | 0.00 | 0.00 | 0.00 | 94 | 1018.2 |
| 20260508043123 | 39 | 115 | 0.0 | 0.0 | 0.00 | 0.00 | 0.00 | 94 | 1018.2 |
| 20260508042619 | 39 | 94 | 0.0 | 0.0 | 0.00 | 0.00 | 0.00 | 94 | 1018.1 |
| 20260508042117 | 39 | 92 | 0.0 | 0.0 | 0.00 | 0.00 | 0.00 | 94 | 1018.1 |
| 20260508041613 | 40 | 92 | 0.0 | 0.0 | 0.00 | 0.00 | 0.00 | 93 | 1018.4 |
| 20260508041109 | 40 | 92 | 0.0 | 0.0 | 0.00 | 0.00 | 0.00 | 93 | 1018.3 |
| 20260508040606 | 40 | 92 | 0.0 | 0.0 | 0.00 | 0.00 | 0.00 | 92 | 1018.2 |
| 20260508040104 | 40 | 92 | 0.0 | 0.0 | 0.00 | 0.00 | 0.00 | 92 | 1018.2 |
| 20260508035601 | 40 | 92 | 0.0 | 0.0 | 0.00 | 0.00 | 0.00 | 91 | 1018.1 |
| 20260508035058 | 40 | 92 | 0.0 | 0.0 | 0.00 | 0.00 | 0.00 | 90 | 1018.0 |
| 20260508034554 | 41 | 92 | 0.0 | 0.0 | 0.00 | 0.00 | 0.00 | 90 | 1018.2 |
| 20260508034052 | 41 | 92 | 0.0 | 0.0 | 0.00 | 0.00 | 0.00 | 89 | 1018.3 |
| 20260508033549 | 41 | 92 | 0.0 | 0.0 | 0.00 | 0.00 | 0.00 | 89 | 1018.2 |
| 20260508033048 | 41 | 92 | 0.0 | 0.0 | 0.00 | 0.00 | 0.00 | 89 | 1018.0 |
| 20260508032543 | 41 | 96 | 0.0 | 0.0 | 0.00 | 0.00 | 0.00 | 89 | 1018.2 |
| 20260508032042 | 41 | 96 | 0.0 | 0.0 | 0.00 | 0.00 | 0.00 | 87 | 1018.2 |
| 20260508031538 | 42 | 96 | 0.0 | 0.0 | 0.00 | 0.00 | 0.00 | 86 | 1018.2 |
| 20260508031034 | 42 | 96 | 0.0 | 0.0 | 0.00 | 0.00 | 0.00 | 86 | 1018.2 |
| 20260508030531 | 42 | 96 | 0.0 | 0.9 | 0.00 | 0.00 | 0.00 | 86 | 1018.1 |
| 20260508030029 | 42 | 96 | 0.0 | 0.0 | 0.00 | 0.00 | 0.00 | 86 | 1018.2 |
| 20260508025524 | 42 | 96 | 0.0 | 0.0 | 0.00 | 0.00 | 0.00 | 86 | 1018.1 |
| 20260508025022 | 43 | 96 | 0.0 | 0.0 | 0.00 | 0.00 | 0.00 | 85 | 1018.0 |
| 20260508024518 | 43 | 96 | 0.0 | 0.0 | 0.00 | 0.00 | 0.00 | 84 | 1018.0 |
| 20260508024015 | 43 | 96 | 0.0 | 0.0 | 0.00 | 0.00 | 0.00 | 84 | 1017.7 |
| 20260508023511 | 43 | 96 | 0.0 | 0.0 | 0.00 | 0.00 | 0.00 | 84 | 1017.9 |
| 20260508023009 | 43 | 96 | 0.0 | 0.0 | 0.00 | 0.00 | 0.00 | 84 | 1017.5 |
| 20260508022505 | 44 | 96 | 0.0 | 0.0 | 0.00 | 0.00 | 0.00 | 82 | 1017.5 |
| 20260508022001 | 44 | 96 | 0.0 | 0.0 | 0.00 | 0.00 | 0.00 | 81 | 1017.3 |
| 20260508021458 | 44 | 96 | 0.0 | 0.0 | 0.00 | 0.00 | 0.00 | 80 | 1017.3 |
| 20260508020954 | 45 | 97 | 0.0 | 0.0 | 0.00 | 0.00 | 0.00 | 78 | 1017.2 |
| 20260508020452 | 45 | 99 | 0.0 | 0.9 | 0.00 | 0.00 | 0.00 | 79 | 1017.2 |
| 20260508015948 | 45 | 148 | 0.0 | 0.0 | 0.00 | 0.00 | 0.00 | 79 | 1017.3 |
| 20260508015446 | 46 | 151 | 0.0 | 0.0 | 0.00 | 0.00 | 0.00 | 78 | 1017.1 |
| 20260508014943 | 46 | 107 | 0.0 | 0.0 | 0.00 | 0.00 | 0.00 | 76 | 1017.0 |
| 20260508014440 | 46 | 126 | 0.0 | 0.0 | 0.00 | 0.00 | 0.00 | 74 | 1017.1 |
| 20260508013935 | 46 | 127 | 0.0 | 0.0 | 0.00 | 0.00 | 0.00 | 74 | 1016.9 |
| 20260508013431 | 46 | 128 | 0.0 | 0.0 | 0.00 | 0.00 | 0.00 | 74 | 1016.6 |
| 20260508012929 | 47 | 128 | 0.0 | 0.0 | 0.00 | 0.00 | 0.00 | 75 | 1016.7 |
| 20260508012426 | 47 | 130 | 0.0 | 0.0 | 0.00 | 0.00 | 0.00 | 73 | 1016.7 |
| 20260508011923 | 48 | 93 | 0.0 | 0.0 | 0.00 | 0.00 | 0.00 | 70 | 1016.6 |
| 20260508011421 | 48 | 93 | 0.9 | 0.9 | 0.00 | 0.00 | 0.00 | 66 | 1016.5 |
| 20260508010918 | 49 | 93 | 0.0 | 0.9 | 0.00 | 0.00 | 0.00 | 65 | 1016.5 |
| 20260508010415 | 49 | 93 | 0.9 | 0.9 | 0.00 | 0.00 | 0.00 | 66 | 1016.4 |
| 20260508005912 | 49 | 96 | 0.9 | 0.9 | 0.00 | 0.00 | 0.00 | 70 | 1016.3 |
| 20260508005409 | 50 | 197 | 0.0 | 0.0 | 0.00 | 0.00 | 0.00 | 66 | 1016.4 |
| 20260508004906 | 50 | 209 | 0.0 | 0.0 | 0.00 | 0.00 | 0.00 | 64 | 1016.3 |
| 20260508004402 | 51 | 209 | 0.0 | 0.0 | 0.00 | 0.00 | 0.00 | 63 | 1016.3 |
| 20260508003859 | 52 | 209 | 0.0 | 0.0 | 0.00 | 0.00 | 0.00 | 62 | 1016.3 |
| 20260508003355 | 52 | 209 | 0.0 | 0.0 | 0.00 | 0.00 | 0.00 | 62 | 1016.0 |
| 20260508002853 | 53 | 208 | 0.0 | 0.0 | 0.00 | 0.00 | 0.00 | 59 | 1016.1 |
| 20260508002349 | 54 | 208 | 0.0 | 0.0 | 0.00 | 0.00 | 0.00 | 52 | 1016.0 |
| 20260508001845 | 55 | 208 | 0.0 | 0.9 | 0.00 | 0.00 | 0.00 | 49 | 1016.0 |
| 20260508001341 | 57 | 7 | 0.0 | 1.7 | 0.00 | 0.00 | 0.00 | 46 | 1016.0 |
| 20260508000838 | 58 | 205 | 0.0 | 0.9 | 0.00 | 0.00 | 0.00 | 42 | 1015.9 |
| 20260508000335 | 58 | 237 | 0.9 | 1.7 | 0.00 | 0.00 | 0.00 | 39 | 1015.7 |
| 20260507235831 | 58 | 93 | 0.0 | 5.2 | 0.00 | 0.00 | 0.00 | 38 | 1015.6 |
| 20260507235329 | 59 | 297 | 2.6 | 3.5 | 0.00 | 0.00 | 0.00 | 36 | 1015.6 |
| 20260507234825 | 59 | 215 | 0.0 | 1.7 | 0.00 | 0.00 | 0.00 | 37 | 1015.5 |
| 20260507234322 | 59 | 346 | 0.9 | 2.6 | 0.00 | 0.00 | 0.00 | 34 | 1015.7 |
| 20260507233818 | 60 | 335 | 4.3 | 6.1 | 0.00 | 0.00 | 0.00 | 34 | 1015.5 |
| 20260507233316 | 60 | 230 | 0.9 | 7.0 | 0.00 | 0.00 | 0.00 | 34 | 1015.5 |
| 20260507232814 | 61 | 319 | 0.9 | 3.5 | 0.00 | 0.00 | 0.00 | 36 | 1015.4 |
| 20260507232310 | 62 | 241 | 1.7 | 1.7 | 0.00 | 0.00 | 0.00 | 36 | 1015.2 |
| 20260507231808 | 62 | 294 | 1.7 | 1.7 | 0.00 | 0.00 | 0.00 | 35 | 1015.3 |
| 20260507231304 | 62 | 272 | 1.7 | 3.5 | 0.00 | 0.00 | 0.00 | 35 | 1015.3 |
| 20260507230800 | 62 | 13 | 0.0 | 3.5 | 0.00 | 0.00 | 0.00 | 36 | 1015.3 |
| 20260507230258 | 62 | 280 | 2.6 | 5.2 | 0.00 | 0.00 | 0.00 | 38 | 1015.2 |
| 20260507225758 | 62 | 127 | 5.2 | 7.0 | 0.00 | 0.00 | 0.00 | 36 | 1015.3 |
| 20260507225254 | 63 | 21 | 0.9 | 5.2 | 0.00 | 0.00 | 0.00 | 37 | 1015.2 |
| 20260507224750 | 63 | 42 | 0.9 | 5.2 | 0.00 | 0.00 | 0.00 | 36 | 1015.2 |
| 20260507224247 | 63 | 264 | 3.5 | 6.1 | 0.00 | 0.00 | 0.00 | 36 | 1015.2 |
| 20260507223743 | 64 | 219 | 1.7 | 7.0 | 0.00 | 0.00 | 0.00 | 35 | 1015.1 |
| 20260507223240 | 63 | 263 | 1.7 | 3.5 | 0.00 | 0.00 | 0.00 | 36 | 1015.3 |
| 20260507222737 | 63 | 35 | 1.7 | 7.0 | 0.00 | 0.00 | 0.00 | 37 | 1015.1 |
| 20260507222233 | 63 | 354 | 0.0 | 3.5 | 0.00 | 0.00 | 0.00 | 40 | 1015.0 |
| 20260507221730 | 63 | 275 | 4.3 | 7.0 | 0.00 | 0.00 | 0.00 | 37 | 1015.1 |
| 20260507221226 | 64 | 272 | 4.3 | 7.8 | 0.00 | 0.00 | 0.00 | 36 | 1015.0 |
| 20260507220723 | 64 | 296 | 1.7 | 5.2 | 0.00 | 0.00 | 0.00 | 38 | 1014.9 |
| 20260507220221 | 63 | 271 | 4.3 | 5.2 | 0.00 | 0.00 | 0.00 | 36 | 1015.0 |
| 20260507215717 | 64 | 3 | 2.6 | 3.5 | 0.00 | 0.00 | 0.00 | 37 | 1014.9 |
| 20260507215215 | 64 | 34 | 1.7 | 7.8 | 0.00 | 0.00 | 0.00 | 38 | 1014.9 |
| 20260507214712 | 64 | 246 | 2.6 | 6.1 | 0.00 | 0.00 | 0.00 | 38 | 1014.7 |
| 20260507214209 | 63 | 298 | 3.5 | 5.2 | 0.00 | 0.00 | 0.00 | 38 | 1014.6 |
| 20260507213704 | 64 | 348 | 1.7 | 5.2 | 0.00 | 0.00 | 0.00 | 38 | 1014.6 |
| 20260507213202 | 63 | 277 | 6.1 | 7.8 | 0.00 | 0.00 | 0.00 | 38 | 1014.6 |
| 20260507212657 | 64 | 21 | 2.6 | 3.5 | 0.00 | 0.00 | 0.00 | 39 | 1014.5 |
| 20260507212154 | 62 | 88 | 1.7 | 7.0 | 0.00 | 0.00 | 0.00 | 40 | 1014.7 |
| 20260507211651 | 63 | 269 | 2.6 | 7.0 | 0.00 | 0.00 | 0.00 | 42 | 1014.5 |
| 20260507211146 | 63 | 263 | 3.5 | 5.2 | 0.00 | 0.00 | 0.00 | 39 | 1014.7 |
| 20260507210644 | 65 | 274 | 2.6 | 6.1 | 0.00 | 0.00 | 0.00 | 38 | 1014.5 |
| 20260507210141 | 64 | 288 | 3.5 | 7.8 | 0.00 | 0.00 | 0.00 | 38 | 1014.3 |
| 20260507205637 | 64 | 125 | 0.9 | 6.1 | 0.00 | 0.00 | 0.00 | 38 | 1014.5 |
| 20260507205134 | 63 | 29 | 1.7 | 6.1 | 0.00 | 0.00 | 0.00 | 40 | 1014.5 |
| 20260507204630 | 63 | 305 | 1.7 | 5.2 | 0.00 | 0.00 | 0.00 | 40 | 1014.3 |
| 20260507204128 | 64 | 50 | 1.7 | 5.2 | 0.00 | 0.00 | 0.00 | 37 | 1014.2 |
| 20260507203626 | 63 | 225 | 3.5 | 7.0 | 0.00 | 0.00 | 0.00 | 41 | 1014.4 |
| 20260507203123 | 64 | 104 | 3.5 | 7.0 | 0.00 | 0.00 | 0.00 | 38 | 1014.4 |
| 20260507202619 | 65 | 273 | 0.9 | 6.1 | 0.00 | 0.00 | 0.00 | 41 | 1014.3 |
| 20260507202115 | 64 | 218 | 2.6 | 7.8 | 0.00 | 0.00 | 0.00 | 42 | 1014.1 |
| 20260507201610 | 65 | 22 | 2.6 | 5.2 | 0.00 | 0.00 | 0.00 | 39 | 1014.2 |
| 20260507201108 | 64 | 15 | 2.6 | 5.2 | 0.00 | 0.00 | 0.00 | 45 | 1014.4 |
| 20260507200603 | 62 | 13 | 0.9 | 3.5 | 0.00 | 0.00 | 0.00 | 47 | 1014.3 |
| 20260507200059 | 63 | 296 | 2.6 | 8.7 | 0.00 | 0.00 | 0.00 | 42 | 1014.5 |
| 20260507195557 | 61 | 41 | 0.9 | 5.2 | 0.00 | 0.00 | 0.00 | 45 | 1014.6 |
| 20260507195054 | 62 | 255 | 2.6 | 6.1 | 0.00 | 0.00 | 0.00 | 45 | 1014.6 |
| 20260507194550 | 64 | 31 | 4.3 | 5.2 | 0.00 | 0.00 | 0.00 | 42 | 1014.5 |
| 20260507194046 | 62 | 246 | 1.7 | 5.2 | 0.00 | 0.00 | 0.00 | 43 | 1014.6 |
| 20260507193543 | 63 | 349 | 1.7 | 3.5 | 0.00 | 0.00 | 0.00 | 44 | 1014.5 |
| 20260507193040 | 61 | 277 | 0.9 | 2.6 | 0.00 | 0.00 | 0.00 | 47 | 1014.7 |
| 20260507192536 | 62 | 261 | 3.5 | 6.1 | 0.00 | 0.00 | 0.00 | 44 | 1014.9 |
| 20260507192033 | 63 | 320 | 3.5 | 6.1 | 0.00 | 0.00 | 0.00 | 44 | 1014.6 |
| 20260507191528 | 63 | 70 | 3.5 | 7.0 | 0.00 | 0.00 | 0.00 | 41 | 1014.9 |
| 20260507191026 | 62 | 344 | 4.3 | 7.0 | 0.00 | 0.00 | 0.00 | 43 | 1014.9 |
| 20260507190523 | 62 | 293 | 1.7 | 7.8 | 0.00 | 0.00 | 0.00 | 43 | 1015.1 |
| 20260507190022 | 62 | 49 | 3.5 | 6.1 | 0.00 | 0.00 | 0.00 | 44 | 1014.9 |
| 20260507185520 | 61 | 292 | 4.3 | 6.1 | 0.00 | 0.00 | 0.00 | 44 | 1015.1 |
| 20260507185016 | 63 | 272 | 3.5 | 7.0 | 0.00 | 0.00 | 0.00 | 43 | 1015.0 |
| 20260507184514 | 65 | 248 | 1.7 | 5.2 | 0.00 | 0.00 | 0.00 | 44 | 1015.0 |
| 20260507184012 | 64 | 303 | 2.6 | 3.5 | 0.00 | 0.00 | 0.00 | 48 | 1015.1 |
| 20260507183507 | 63 | 229 | 2.6 | 3.5 | 0.00 | 0.00 | 0.00 | 43 | 1015.2 |
| 20260507183005 | 63 | 208 | 3.5 | 7.8 | 0.00 | 0.00 | 0.00 | 50 | 1015.4 |
| 20260507182501 | 64 | 176 | 0.0 | 6.1 | 0.00 | 0.00 | 0.00 | 43 | 1015.3 |
| 20260507181957 | 63 | 59 | 4.3 | 7.0 | 0.00 | 0.00 | 0.00 | 48 | 1015.2 |
| 20260507181454 | 63 | 2 | 2.6 | 7.0 | 0.00 | 0.00 | 0.00 | 47 | 1015.2 |
| 20260507180950 | 61 | 41 | 0.9 | 1.7 | 0.00 | 0.00 | 0.00 | 48 | 1015.2 |
| 20260507180447 | 60 | 19 | 3.5 | 6.1 | 0.00 | 0.00 | 0.00 | 46 | 1015.4 |
| 20260507175943 | 61 | 19 | 1.7 | 3.5 | 0.00 | 0.00 | 0.00 | 50 | 1015.4 |
| 20260507175440 | 61 | 175 | 7.8 | 8.7 | 0.00 | 0.00 | 0.00 | 46 | 1015.1 |
| 20260507174938 | 61 | 264 | 4.3 | 7.0 | 0.00 | 0.00 | 0.00 | 46 | 1015.2 |
| 20260507174434 | 61 | 290 | 6.1 | 8.7 | 0.00 | 0.00 | 0.00 | 50 | 1015.5 |
| 20260507173932 | 62 | 324 | 2.6 | 7.0 | 0.00 | 0.00 | 0.00 | 51 | 1015.4 |
| 20260507173429 | 60 | 247 | 1.7 | 5.2 | 0.00 | 0.00 | 0.00 | 52 | 1015.6 |
| 20260507172926 | 59 | 12 | 0.9 | 6.1 | 0.00 | 0.00 | 0.00 | 54 | 1015.4 |
| 20260507172422 | 60 | 250 | 2.6 | 5.2 | 0.00 | 0.00 | 0.00 | 51 | 1015.5 |
| 20260507171918 | 61 | 25 | 3.5 | 6.1 | 0.00 | 0.00 | 0.00 | 50 | 1015.4 |
| 20260507171415 | 61 | 359 | 5.2 | 6.1 | 0.00 | 0.00 | 0.00 | 50 | 1015.9 |
| 20260507170912 | 61 | 266 | 1.7 | 5.2 | 0.00 | 0.00 | 0.00 | 52 | 1015.8 |
| 20260507170408 | 62 | 108 | 0.9 | 1.7 | 0.00 | 0.00 | 0.00 | 47 | 1015.7 |
| 20260507165905 | 61 | 287 | 0.9 | 5.2 | 0.00 | 0.00 | 0.00 | 50 | 1015.8 |
| 20260507165401 | 59 | 18 | 2.6 | 3.5 | 0.00 | 0.00 | 0.00 | 56 | 1015.9 |
| 20260507164857 | 60 | 55 | 0.9 | 6.1 | 0.00 | 0.00 | 0.00 | 54 | 1016.0 |
| 20260507164354 | 59 | 24 | 1.7 | 3.5 | 0.00 | 0.00 | 0.00 | 53 | 1015.8 |
| 20260507163851 | 60 | 31 | 1.7 | 2.6 | 0.00 | 0.00 | 0.00 | 55 | 1016.1 |
| 20260507163348 | 60 | 52 | 1.7 | 2.6 | 0.00 | 0.00 | 0.00 | 51 | 1015.9 |
| 20260507162845 | 60 | 68 | 0.9 | 7.0 | 0.00 | 0.00 | 0.00 | 56 | 1016.1 |
| 20260507162340 | 60 | 324 | 1.7 | 3.5 | 0.00 | 0.00 | 0.00 | 52 | 1016.1 |
| 20260507161838 | 61 | 338 | 1.7 | 3.5 | 0.00 | 0.00 | 0.00 | 53 | 1016.2 |
| 20260507161334 | 59 | 204 | 0.0 | 5.2 | 0.00 | 0.00 | 0.00 | 51 | 1016.2 |
| 20260507160831 | 59 | 52 | 1.7 | 6.1 | 0.00 | 0.00 | 0.00 | 55 | 1016.3 |
| 20260507160326 | 60 | 324 | 1.7 | 5.2 | 0.00 | 0.00 | 0.00 | 55 | 1016.3 |
| 20260507155823 | 59 | 53 | 0.9 | 1.7 | 0.00 | 0.00 | 0.00 | 57 | 1016.4 |
| 20260507155319 | 59 | 131 | 1.7 | 2.6 | 0.00 | 0.00 | 0.00 | 53 | 1016.2 |
| 20260507154816 | 60 | 23 | 1.7 | 3.5 | 0.00 | 0.00 | 0.00 | 51 | 1016.2 |
| 20260507154313 | 59 | 284 | 1.7 | 2.6 | 0.00 | 0.00 | 0.00 | 52 | 1016.2 |
| 20260507153810 | 58 | 20 | 2.6 | 5.2 | 0.00 | 0.00 | 0.00 | 52 | 1016.3 |
| 20260507153306 | 60 | 243 | 3.5 | 6.1 | 0.00 | 0.00 | 0.00 | 52 | 1016.2 |
| 20260507152803 | 60 | 256 | 2.6 | 2.6 | 0.00 | 0.00 | 0.00 | 57 | 1016.1 |
| 20260507152259 | 58 | 267 | 0.9 | 6.1 | 0.00 | 0.00 | 0.00 | 57 | 1016.3 |
| 20260507151755 | 60 | 118 | 0.9 | 5.2 | 0.00 | 0.00 | 0.00 | 57 | 1016.3 |